GFSNE_con_mucape_132.txt.gz
CAPE
844 1064 1295 1131 1078 724 561 463 536 323 150 588 477 434 645 757 765 824 902 355 512 200 77 88 0 0 0 0 0 0 0 8 2 56 136 163 890 1882
902 920 975 865 842 825 632 471 664 302 154 311 700 327 423 485 251 488 808 401 335 204 115 96 0 0 0 0 0 0 0 0 0 0 98 108 306 695
1021 690 595 611 944 776 771 465 636 526 188 159 665 441 120 28 23 209 292 302 234 209 96 79 10 0 0 0 0 0 0 0 0 0 0 11 0 0
881 739 820 659 451 361 574 545 556 728 504 272 180 151 175 94 83 150 122 131 110 100 54 25 17 3 0 0 0 0 0 0 0 0 0 24 42 35
868 816 664 753 713 493 574 448 278 535 402 228 155 67 193 178 101 15 1 34 20 2 18 59 1 0 0 0 0 0 0 0 0 0 0 0 0 0
841 757 748 689 412 386 574 539 378 440 339 177 93 35 107 66 145 46 14 25 20 15 18 17 0 10 1 0 0 0 0 0 0 0 0 0 0 0
574 464 611 599 634 567 377 364 484 426 232 146 69 48 7 7 39 31 38 31 51 72 68 84 49 21 12 0 2 3 0 0 0 0 0 0 0 0
403 348 317 420 323 271 126 52 72 173 182 138 69 46 14 43 13 6 8 86 26 44 87 109 83 61 57 44 27 16 0 0 0 0 0 0 0 0
105 110 145 163 108 82 50 26 26 41 40 46 34 50 37 12 2 2 17 15 26 51 34 101 81 87 64 70 72 84 4 0 0 0 0 0 0 0
46 51 24 27 7 21 51 63 47 34 39 51 51 41 5 0 1 0 3 0 32 62 136 120 117 134 96 73 62 69 46 0 0 0 0 0 0 0
42 29 12 18 17 14 4 14 25 34 44 52 49 42 6 1 8 15 8 8 5 115 101 129 94 106 128 105 113 113 23 0 0 0 0 0 0 0
56 30 13 16 21 35 27 24 22 5 15 69 22 18 19 43 50 24 22 24 27 10 28 56 90 98 125 133 152 58 2 0 0 0 0 0 0 0
47 8 9 0 0 0 0 2 10 30 48 57 66 71 67 67 67 51 47 54 71 86 56 65 51 74 136 81 77 17 5 0 0 0 0 0 0 0
3 14 25 5 0 0 2 9 9 14 23 36 67 85 93 54 58 37 37 70 59 63 35 32 89 72 78 73 75 5 0 0 0 0 0 0 0 0
1 0 2 10 17 17 10 23 23 24 37 47 45 52 26 19 28 30 29 22 19 15 2 2 94 79 36 77 49 10 0 0 0 0 0 0 0 0
1 5 5 8 8 4 4 7 1 0 0 0 0 0 0 0 3 5 2 2 2 0 0 0 0 0 0 0 0 0 0 0 0 0 0 0 0 0
1 0 0 0 0 0 0 0 0 0 0 0 0 0 0 0 0 0 0 0 0 0 0 0 0 0 0 0 0 0 0 0 0 0 0 0 0 0
0 0 0 0 0 0 0 0 0 0 0 0 0 0 0 0 0 0 0 0 0 0 0 0 0 0 0 0 0 0 0 0 0 0 0 0 0 0
0 0 0 0 0 0 0 0 0 0 0 0 0 0 0 0 0 0 0 0 0 0 0 0 0 0 0 3 0 0 0 0 0 0 0 0 0 0
0 0 0 0 0 0 0 0 0 0 0 0 2 4 5 5 0 0 0 0 0 0 0 0 0 0 0 0 0 0 0 0 0 0 0 0 0 0
0 0 0 0 0 0 0 0 0 0 0 0 0 4 5 3 0 0 0 0 0 0 0 0 0 0 0 0 0 0 0 0 0 0 0 0 0 0
0 0 0 0 0 0 0 0 0 3 7 10 20 17 4 1 0 0 0 0 0 0 0 0 0 0 0 0 0 0 0 0 2 10 4 5 1 0
0 0 0 0 0 0 0 0 0 4 13 15 21 11 18 11 0 0 0 0 0 0 0 0 6 5 0 0 0 1 3 5 11 19 21 26 22 17

GFSNE_con_mucape_138.txt.gz
CAPE
903 903 715 896 1020 735 608 405 336 319 186 355 660 442 667 477 288 425 713 531 470 100 3 12 4 1 0 0 0 0 0 0 0 0 0 49 129 1217
974 852 792 696 794 695 611 515 418 366 365 98 437 555 202 144 86 43 10 154 268 156 50 12 27 8 0 0 0 0 0 0 0 0 0 44 132 498
841 802 769 709 629 533 516 585 500 385 315 298 147 445 408 126 37 7 0 5 14 22 10 10 8 11 1 0 0 0 0 0 0 0 0 0 0 15
1136 1031 928 780 735 635 580 545 425 311 294 510 197 225 219 69 48 51 12 11 4 10 14 4 7 17 8 0 0 0 0 0 0 0 0 0 0 0
1029 863 981 691 723 615 604 593 510 386 444 332 394 200 127 73 77 3 42 13 0 3 9 2 1 7 7 5 0 0 0 0 0 0 0 0 0 0
981 927 820 632 615 703 586 434 388 338 313 378 321 238 96 37 101 103 58 0 13 0 0 2 14 15 21 7 2 0 0 0 0 0 0 0 0 0
808 659 414 527 567 544 508 573 461 388 360 271 221 184 135 35 47 5 22 2 4 13 11 17 27 53 66 58 36 19 3 6 21 2 0 0 0 0
578 547 480 475 426 390 312 208 100 63 165 154 118 85 67 33 5 0 11 18 162 38 7 12 12 29 77 101 103 89 71 78 81 59 24 0 0 0
642 661 414 247 148 122 79 47 30 17 7 5 10 27 39 35 29 17 9 10 24 8 8 10 40 65 70 80 76 95 83 62 78 82 38 1 0 0
489 406 169 50 33 54 38 32 13 15 20 19 13 11 28 46 59 66 65 44 29 36 1 78 14 9 35 51 57 61 68 74 72 77 59 0 0 0
152 99 76 59 52 33 25 44 60 37 58 32 19 24 6 22 7 12 12 3 3 6 3 16 9 6 11 4 17 46 71 88 89 12 53 1 0 0
99 103 95 101 73 41 15 65 53 56 55 11 4 16 31 13 6 9 3 6 6 12 0 0 2 0 1 2 21 33 57 52 86 15 8 9 1 0
27 17 25 32 31 23 68 27 2 4 16 10 15 26 19 45 35 29 31 21 23 18 1 0 9 6 20 25 12 44 22 17 6 8 5 2 2 0
56 18 13 34 6 1 0 0 0 0 3 4 9 1 4 6 5 6 0 1 3 1 2 11 26 11 7 17 32 0 0 0 0 0 14 28 8 2
4 15 10 12 1 12 12 24 5 1 1 0 0 0 0 0 0 0 0 0 0 0 0 0 0 0 0 0 0 0 0 0 0 0 2 3 0 0
4 52 30 27 13 9 1 0 0 0 0 0 0 0 0 0 0 0 0 0 0 0 0 0 0 0 0 0 0 0 0 0 0 0 0 6 3 2
28 41 23 13 1 0 0 0 0 0 0 0 0 0 0 0 0 0 0 0 0 0 0 0 0 0 0 0 0 0 0 0 0 0 9 36 31 26
23 7 6 1 0 0 0 0 0 0 0 0 0 0 0 0 0 0 0 0 0 0 0 0 0 0 0 0 0 0 0 0 0 2 23 31 30 30
0 0 0 0 0 0 0 0 0 0 0 0 0 0 0 0 0 0 0 0 0 0 0 0 0 0 0 0 0 0 0 0 0 0 8 22 16 16
0 0 0 0 0 0 0 0 0 0 0 0 0 0 0 0 0 0 0 0 0 0 0 0 0 0 0 0 0 0 0 0 0 0 8 11 17 15
0 0 0 0 0 0 0 0 0 0 0 0 0 0 0 0 0 0 0 0 0 0 0 0 0 0 0 0 3 14 5 0 4 0 12 8 9 6
0 0 0 0 0 0 0 0 0 0 0 0 0 0 0 0 0 0 0 0 0 0 0 0 0 0 0 3 6 8 38 19 13 21 29 35 13 20
0 0 0 0 0 0 0 0 0 0 0 0 0 0 0 0 0 0 0 0 0 0 0 0 0 0 0 0 0 26 43 7 6 12 13 17 50 27

GFSNE_con_mucape_141.txt.gz
CAPE
1994 2084 1931 1514 1774 2216 1731 1471 1112 699 539 664 578 1584 1603 1535 796 1004 981 84 217 327 204 32 3 3 1 0 0 0 0 0 0 0 0 25 229 508
1783 2062 2103 1602 1618 1783 1788 2065 1309 1226 1097 871 843 1041 1352 1059 485 781 216 7 2 11 18 10 0 4 3 0 0 0 0 0 0 0 0 36 52 93
2184 2061 2040 2068 1540 1395 2099 2081 2396 2049 1172 924 1030 1087 1578 1631 951 861 305 256 45 0 6 6 5 4 0 0 0 0 0 0 0 0 0 0 0 12
2078 2076 2084 2059 2016 2215 2724 2071 1438 1987 1475 1419 1790 1553 1228 1178 891 977 564 36 2 0 0 7 0 1 6 5 0 0 0 0 0 0 0 0 0 0
1894 1823 1857 1942 2126 2290 2107 2154 2132 1437 1405 1342 1213 1208 1002 714 584 801 837 269 0 0 0 0 0 0 5 9 3 0 0 0 0 0 0 0 0 0
2023 2102 1899 1729 1725 1020 1564 1794 1645 1613 1381 1399 1125 940 857 760 600 546 411 474 307 10 0 0 5 19 34 44 58 29 5 0 0 1 12 1 0 0
1842 1739 1667 750 481 544 1442 1575 1611 1348 1077 845 840 690 710 712 439 239 201 211 208 50 30 13 18 19 25 25 50 47 51 43 16 22 48 47 27 2
1754 1620 862 373 300 310 275 171 70 409 603 649 579 565 467 291 197 11 12 80 248 23 1 64 8 13 21 24 46 63 89 42 62 42 30 37 30 32
1528 1429 609 400 260 246 40 23 37 23 10 7 79 77 69 10 15 12 10 9 15 24 6 22 6 11 7 5 14 29 31 38 62 28 30 15 27 21
501 447 474 353 156 49 122 134 33 10 0 1 9 10 11 13 11 14 34 5 8 0 0 41 2 3 2 1 1 1 2 1 6 3 11 11 21 7
297 294 217 114 62 48 57 60 35 12 25 36 30 21 9 1 22 0 2 2 3 1 0 3 0 0 0 0 0 0 0 0 0 4 9 7 7 18
192 106 84 71 61 34 18 6 4 11 15 15 18 33 11 1 1 2 0 0 0 0 0 0 0 0 0 0 0 0 5 0 0 0 0 0 5 4
111 79 45 28 18 15 10 3 6 8 1 0 0 2 0 9 7 2 2 4 3 1 0 0 0 0 0 0 0 0 0 0 0 0 0 0 26 3
105 91 66 38 41 1 0 0 7 4 1 0 2 30 50 5 0 0 0 0 0 0 0 0 0 0 0 0 0 0 0 0 0 0 0 0 5 26
93 99 78 27 0 0 20 30 14 12 7 0 0 0 0 0 0 0 0 0 0 0 0 0 0 0 0 0 0 0 0 0 0 0 0 0 0 4
92 68 17 0 5 14 21 8 3 0 0 0 0 0 0 0 0 0 0 0 0 0 0 0 0 0 0 0 0 0 0 0 0 0 0 0 0 13
28 42 16 28 18 8 14 1 0 0 0 0 0 0 0 0 0 0 0 0 0 0 0 0 0 0 0 0 0 0 0 0 0 0 0 0 3 31
66 44 43 25 23 4 0 0 0 0 0 0 0 0 0 0 0 0 0 0 0 0 0 0 0 0 1 27 0 0 1 3 1 0 46 30 61 34
21 15 1 0 0 0 0 0 0 0 0 0 0 0 0 0 0 0 0 0 0 0 0 0 0 0 0 0 8 0 0 0 4 25 42 43 89 89
0 0 0 0 0 0 0 0 0 0 0 0 0 0 0 0 0 0 0 0 0 0 0 0 0 0 0 1 2 11 0 18 40 49 77 28 13 5
0 0 0 0 0 0 0 0 0 0 0 0 0 0 0 0 0 0 0 0 0 3 2 5 1 0 0 16 36 19 41 11 9 71 98 52 35 54
0 0 0 0 0 0 0 0 0 0 0 0 0 0 0 0 0 0 4 5 4 2 6 5 9 18 29 28 31 46 69 100 5 0 0 3 37 83
0 0 0 0 0 0 0 0 0 0 0 0 0 0 0 0 0 1 0 0 0 4 9 18 16 14 24 23 10 57 50 64 75 58 24 0 0 3

GFSNE_con_mucape_144.txt.gz
CAPE
1554 1803 1898 878 743 874 924 1056 1096 696 517 1744 979 1784 957 950 982 1205 1267 18 0 0 1 0 2 0 0 0 0 0 0 0 0 0 0 35 97 274
1379 1565 1808 1071 959 888 1044 1101 1114 2342 1234 1318 1820 1045 1411 992 564 1061 1140 116 74 0 0 0 0 0 0 0 0 0 0 0 0 0 0 0 10 41
1984 1879 2055 2231 1758 902 1045 1007 1391 2358 1682 1043 1327 1349 1842 1826 1394 1552 1187 991 177 26 0 0 0 0 0 0 4 4 0 0 0 0 0 0 0 0
1676 1974 1849 1775 2203 2043 1556 1836 1737 2292 1568 1441 2010 1682 2263 1728 1706 1594 990 469 559 20 0 0 0 0 0 0 3 0 0 0 0 0 0 0 0 0
1692 1691 1814 1745 2574 2689 2354 2886 2274 1903 2278 1777 1291 731 1245 1846 1266 1305 1349 1151 491 0 0 0 0 0 0 7 4 10 30 1 0 0 0 0 0 0
1747 1987 1640 1696 1896 1957 1869 1820 2122 2519 1929 1253 912 904 1130 1053 1309 1559 1944 1957 761 361 31 0 0 0 3 8 5 9 45 15 5 6 5 4 6 7
1677 1819 1710 1340 768 874 1292 1539 1878 1889 770 748 1284 950 1072 1509 1214 806 715 862 512 167 187 120 47 4 0 0 5 8 16 14 40 37 46 38 43 53
1474 1630 1645 563 270 284 280 224 202 983 1093 965 801 698 705 543 147 38 77 162 387 28 61 86 15 2 0 2 2 9 4 8 17 14 1 8 2 0
1656 1675 1671 830 798 894 194 30 10 5 2 227 450 331 67 6 1 0 2 5 11 12 5 2 0 0 0 0 0 0 0 0 0 0 0 0 0 0
1593 1830 1616 668 444 622 728 516 104 43 34 3 0 3 13 1 0 0 0 0 1 1 0 24 0 0 0 0 0 0 0 0 0 0 0 0 0 1
980 929 573 170 276 189 405 359 44 0 0 0 3 4 10 17 7 6 1 7 4 0 0 0 0 0 0 0 0 0 0 0 0 0 0 2 1 1
197 182 200 143 109 62 88 173 45 0 0 0 2 3 0 0 3 2 1 3 2 10 0 0 0 0 0 6 1 0 0 0 0 0 0 0 0 2
113 125 105 72 50 39 47 46 26 0 0 0 0 0 0 2 0 0 0 0 0 0 0 0 0 0 0 0 0 21 6 0 2 0 0 0 0 0
142 104 66 51 46 50 63 53 11 0 0 6 69 91 83 10 4 0 0 0 0 0 0 0 0 0 0 0 0 1 14 19 28 21 26 0 0 0
128 82 64 54 42 42 11 0 0 7 12 9 0 0 0 0 0 0 0 0 0 0 0 0 0 0 0 0 0 0 0 0 29 22 23 39 40 17
98 88 74 54 27 1 13 15 12 6 11 7 0 0 0 0 0 0 0 0 0 0 0 0 0 0 0 0 0 4 8 6 15 23 36 39 45 26
77 17 12 4 0 1 1 0 5 2 0 0 0 0 0 0 0 0 0 0 0 0 0 0 0 0 3 2 2 7 5 9 16 26 43 66 136 63
50 27 5 6 0 6 20 20 4 0 0 0 0 0 0 0 0 0 0 0 0 0 0 0 0 0 1 58 0 0 1 3 11 16 63 41 64 164
4 0 2 0 8 29 3 0 0 0 0 0 0 0 0 0 0 0 0 0 0 0 0 0 1 0 0 7 26 0 12 9 18 34 36 100 76 87
5 4 12 24 0 0 0 0 0 0 0 0 0 0 0 0 1 0 0 0 0 0 1 7 13 5 4 14 17 44 0 16 3 23 36 82 71 7
0 0 0 0 0 0 0 0 0 0 0 0 0 0 1 0 1 0 0 0 0 7 7 15 36 1 46 55 45 63 38 0 0 0 18 50 64 122
0 0 0 0 0 0 0 0 0 0 0 0 1 1 3 1 2 0 3 2 6 8 21 30 28 31 38 24 23 45 47 55 7 1 0 1 23 51
0 0 0 0 0 0 0 0 0 0 0 0 0 1 0 0 0 2 2 4 12 11 27 24 29 6 18 23 14 27 35 45 59 122 10 0 0 0

GFSNE_con_mucape_147.txt.gz
CAPE
2172 2711 2086 1002 431 282 518 679 887 332 1383 1718 1841 1596 1289 1421 1265 1170 1328 654 28 0 0 0 0 0 0 0 0 0 0 0 0 0 0 0 2 52
1152 2900 2875 963 741 485 505 640 528 1837 1397 559 2427 1244 1765 1309 833 1162 1133 495 270 54 0 0 0 0 0 0 0 0 0 0 0 0 0 0 0 0
2215 2659 2599 2163 1556 1027 701 1821 1245 1820 1848 1070 1905 2299 1967 1960 1911 2045 1292 1082 399 87 3 0 0 0 0 0 0 0 0 0 0 0 0 0 0 0
2058 2373 2009 1838 2690 2662 1941 3051 2127 2217 2376 1876 2651 1510 1861 1717 1830 1660 1260 599 433 113 0 0 0 0 0 0 0 0 0 0 14 6 0 0 0 0
2312 2434 2049 2518 2922 1971 2235 3000 2845 2201 2152 1416 1578 1985 2331 2168 1897 1836 1406 1863 650 103 0 0 0 0 0 0 0 0 0 0 5 0 0 0 0 0
2888 1900 1855 2507 2715 2711 2717 2867 2500 2336 2151 1531 1420 1291 1442 1680 1266 1217 1426 1883 1258 397 28 1 0 0 0 0 0 0 0 0 0 0 0 1 1 14
2725 2067 2491 2460 1142 1396 2766 1976 1781 1726 2244 1364 1486 1043 1881 1369 1062 1093 802 1395 1202 853 988 15 7 8 0 0 0 0 0 0 0 0 0 1 0 0
2573 2430 1957 1168 828 349 217 580 677 1673 1470 1056 1333 1034 1163 1099 718 171 276 381 450 43 134 25 12 6 0 0 0 0 0 0 0 0 0 0 0 0
2682 2369 1813 1859 1181 392 209 175 95 8 1 239 648 692 368 32 7 3 0 1 1 0 17 29 0 0 0 0 0 0 0 0 0 0 0 0 0 0
2218 2162 2660 1760 1262 1468 481 384 329 184 36 21 39 4 0 0 0 0 0 7 0 0 0 14 1 9 0 0 0 0 0 0 0 0 0 0 0 0
1868 1753 2049 1720 759 489 990 848 300 67 44 2 0 1 5 8 10 12 8 7 1 0 0 0 12 1 8 0 0 0 0 0 0 0 0 0 0 0
2090 1302 1013 863 136 199 622 707 257 42 0 0 0 0 2 0 0 0 0 0 12 66 0 0 0 0 0 43 5 0 0 0 0 0 0 0 0 0
1098 541 276 159 131 117 110 449 82 22 10 4 0 0 0 0 0 0 1 0 0 0 0 0 0 0 0 0 7 46 37 2 1 1 0 0 0 0
504 131 92 124 97 63 47 58 65 50 4 6 1 3 4 9 4 0 0 0 0 0 0 0 0 0 0 0 0 1 6 13 58 43 17 5 0 0
239 57 77 95 91 83 76 56 46 13 25 26 98 70 1 0 2 2 0 70 0 0 0 0 0 0 0 0 1 0 0 4 18 18 62 61 16 4
194 84 53 67 68 50 44 27 1 2 2 34 13 0 0 0 0 0 0 0 0 17 9 1 0 8 0 0 0 4 8 5 19 37 8 15 75 81
133 53 35 54 61 32 9 5 0 65 18 20 13 9 0 0 0 0 0 0 0 0 0 8 17 61 18 25 3 4 0 0 0 19 46 66 229 193
24 13 40 36 30 14 3 0 72 37 31 10 21 2 0 0 0 6 3 0 0 0 0 0 1 4 13 34 1 1 0 5 26 72 272 58 57 65
8 5 6 5 1 1 0 1 0 0 2 0 0 0 4 5 0 1 9 10 8 0 0 0 0 1 0 0 11 4 41 23 21 19 76 100 58 120
0 0 1 0 0 0 0 5 0 0 0 0 0 0 4 15 18 5 6 0 0 0 0 13 16 2 0 3 31 28 11 24 26 25 4 19 82 18
0 1 6 3 7 0 0 0 0 0 0 0 0 1 0 0 2 2 0 0 0 1 11 15 23 0 17 41 46 74 41 3 2 14 52 11 16 36
28 26 50 33 4 0 0 0 0 0 4 1 7 17 10 1 0 0 0 0 2 4 16 23 28 6 11 22 17 70 48 27 7 0 0 0 0 0
14 0 0 0 0 0 0 0 0 2 0 0 0 1 0 0 0 0 2 3 12 1 9 2 0 4 13 18 7 19 52 42 33 33 101 22 0 0